EZY1540 EKCH-LSGG

Flight info

Callsign EZY1540
Flight time 1h 48m
Altitude 35000
Route SALLO M736 BAKDO DCT AMOSA/N0440F380 DCT DKB DCT TEDGO/N0438F370 N869 NATOR DCT LUTIX N869 BENOT
Aircraft A320/M-SDE3FGHIRWY/LB1

Departure

Time 2026-04-25 10:45
Airport Copenhagen Kastrup Airport (EKCH)

Arrival

Time 2026-04-25 12:34
Airport Geneva International Airport (LSGG)
Time Latitude Longitude Altitude Speed Heading
2026-04-25 10:17 55.62513 12.65840 16 ft 0 kts
2026-04-25 10:18 55.62742 12.64604 21 ft 0 kts 283°
2026-04-25 10:38 55.62737 12.64644 20 ft 4 kts 288°
2026-04-25 10:39 55.62727 12.64688 20 ft 4 kts 297°
2026-04-25 10:39 55.62719 12.64715 20 ft 1 kts 298°
2026-04-25 10:39 55.62718 12.64719 19 ft 0 kts 298°
2026-04-25 10:41 55.62718 12.64718 19 ft 0 kts 298°
2026-04-25 10:41 55.62719 12.64695 20 ft 3 kts 270°
2026-04-25 10:41 55.62698 12.64674 20 ft 6 kts 181°
2026-04-25 10:41 55.62621 12.64662 19 ft 14 kts 191°
2026-04-25 10:42 55.62528 12.64655 20 ft 14 kts 176°
2026-04-25 10:42 55.62427 12.64676 23 ft 16 kts 174°
2026-04-25 10:42 55.62312 12.64632 22 ft 20 kts 226°
2026-04-25 10:42 55.62252 12.64399 19 ft 21 kts 258°
2026-04-25 10:43 55.62224 12.64278 16 ft 8 kts 156°
2026-04-25 10:43 55.62161 12.64316 16 ft 13 kts 193°
2026-04-25 10:43 55.62083 12.64250 19 ft 12 kts 205°
2026-04-25 10:43 55.62002 12.64185 21 ft 14 kts 204°
2026-04-25 10:44 55.61907 12.64105 21 ft 16 kts 207°
2026-04-25 10:44 55.61783 12.64074 20 ft 20 kts 177°
2026-04-25 10:44 55.61646 12.64070 21 ft 18 kts 198°
2026-04-25 10:44 55.61517 12.63901 18 ft 34 kts 221°
2026-04-25 10:45 55.61172 12.63364 26 ft 99 kts 220°
2026-04-25 10:45 55.60508 12.62348 28 ft 151 kts 226°
2026-04-25 10:45 55.59668 12.61118 518 ft 159 kts 227°
2026-04-25 10:45 55.58842 12.59846 1303 ft 158 kts 232°
2026-04-25 10:46 55.57977 12.58484 1780 ft 177 kts 231°
2026-04-25 10:46 55.57003 12.56936 2126 ft 201 kts 230°
2026-04-25 10:46 55.55753 12.55473 2570 ft 236 kts 207°
2026-04-25 10:46 55.54001 12.55269 3090 ft 274 kts 169°
2026-04-25 10:47 55.52254 12.56797 3926 ft 285 kts 150°
2026-04-25 10:47 55.50622 12.58882 4812 ft 293 kts 144°
2026-04-25 10:47 55.49017 12.61195 5652 ft 302 kts 143°
2026-04-25 10:47 55.47387 12.63611 6462 ft 310 kts 143°
2026-04-25 10:48 55.45731 12.66032 7245 ft 316 kts 144°
2026-04-25 10:48 55.44004 12.68492 8074 ft 321 kts 146°
2026-04-25 10:48 55.42239 12.70955 8919 ft 326 kts 146°
2026-04-25 10:48 55.40439 12.73420 9754 ft 330 kts 147°
2026-04-25 10:49 55.38569 12.75951 10194 ft 350 kts 147°
2026-04-25 10:49 55.36564 12.78637 10487 ft 372 kts 147°
2026-04-25 10:49 55.34479 12.81430 11103 ft 381 kts 147°
2026-04-25 10:49 55.32361 12.84286 11855 ft 385 kts 147°
2026-04-25 10:50 55.30225 12.87173 12594 ft 390 kts 147°
2026-04-25 10:50 55.28067 12.90095 13322 ft 394 kts 147°
2026-04-25 10:50 55.25881 12.93048 13997 ft 398 kts 147°
2026-04-25 10:50 55.23671 12.96024 14635 ft 402 kts 147°
2026-04-25 10:51 55.21440 12.99024 15278 ft 406 kts 147°
2026-04-25 10:51 55.19186 13.02054 15932 ft 410 kts 147°
2026-04-25 10:51 55.16913 13.05102 16575 ft 414 kts 147°
2026-04-25 10:51 55.14618 13.08173 17194 ft 418 kts 147°
2026-04-25 10:52 55.12298 13.11272 17807 ft 421 kts 148°
2026-04-25 10:52 55.09986 13.14355 18373 ft 425 kts 148°
2026-04-25 10:52 55.07618 13.17501 18906 ft 429 kts 148°
2026-04-25 10:52 55.05235 13.20663 19419 ft 431 kts 147°
2026-04-25 10:53 55.02840 13.23845 19989 ft 434 kts 147°
2026-04-25 10:53 55.00434 13.27038 20527 ft 437 kts 147°
2026-04-25 10:53 54.98006 13.30234 21035 ft 439 kts 149°
2026-04-25 10:53 54.95392 13.32918 21512 ft 434 kts 161°
2026-04-25 10:54 54.92574 13.34685 22036 ft 427 kts 173°
2026-04-25 10:54 54.90654 13.35323 22357 ft 422 kts 181°
2026-04-25 10:54 54.86779 13.35367 23007 ft 412 kts 195°
2026-04-25 10:54 54.84002 13.34406 23485 ft 404 kts 205°
2026-04-25 10:55 54.81321 13.32938 23887 ft 405 kts 206°
2026-04-25 10:55 54.78625 13.31453 24253 ft 408 kts 206°
2026-04-25 10:55 54.75912 13.29965 24630 ft 411 kts 205°
2026-04-25 10:55 54.73177 13.28470 25027 ft 413 kts 205°
2026-04-25 10:56 54.70426 13.26971 25406 ft 416 kts 205°
2026-04-25 10:56 54.67652 13.25462 25795 ft 419 kts 205°
2026-04-25 10:56 54.64862 13.23949 26180 ft 421 kts 205°
2026-04-25 10:56 54.62054 13.22434 26565 ft 424 kts 205°
2026-04-25 10:57 54.59236 13.20912 26932 ft 426 kts 205°
2026-04-25 10:57 54.56393 13.19375 27296 ft 428 kts 205°
2026-04-25 10:57 54.53538 13.17835 27596 ft 431 kts 204°
2026-04-25 10:57 54.50665 13.16287 27898 ft 435 kts 204°
2026-04-25 10:58 54.47768 13.14728 28246 ft 438 kts 204°
2026-04-25 10:58 54.44853 13.13169 28597 ft 440 kts 204°
2026-04-25 10:58 54.41903 13.11645 28955 ft 443 kts 203°
2026-04-25 10:58 54.38938 13.10161 29295 ft 446 kts 203°
2026-04-25 10:59 54.35943 13.08689 29620 ft 448 kts 203°
2026-04-25 10:59 54.32976 13.07239 29932 ft 451 kts 203°
2026-04-25 10:59 54.29950 13.05761 30176 ft 453 kts 203°
2026-04-25 10:59 54.26916 13.04272 30425 ft 455 kts 202°
2026-04-25 11:00 54.23869 13.02765 30691 ft 457 kts 203°
2026-04-25 11:00 54.20809 13.01247 30951 ft 459 kts 203°
2026-04-25 11:00 54.17737 12.99721 31207 ft 460 kts 203°
2026-04-25 11:00 54.14661 12.98193 31544 ft 460 kts 203°
2026-04-25 11:01 54.11592 12.96671 31929 ft 459 kts 203°
2026-04-25 11:01 54.08538 12.95130 32305 ft 457 kts 204°
2026-04-25 11:01 54.05500 12.93562 32638 ft 456 kts 204°
2026-04-25 11:01 54.02468 12.91978 32971 ft 456 kts 204°
2026-04-25 11:02 53.99433 12.90386 33307 ft 456 kts 204°
2026-04-25 11:02 53.96399 12.88799 33664 ft 455 kts 204°
2026-04-25 11:02 53.93365 12.87219 34004 ft 455 kts 204°
2026-04-25 11:02 53.90336 12.85650 34294 ft 454 kts 204°
2026-04-25 11:03 53.87307 12.84081 34576 ft 455 kts 204°
2026-04-25 11:03 53.84320 12.82541 34842 ft 455 kts 204°
2026-04-25 11:03 53.81289 12.80983 34930 ft 454 kts 204°
2026-04-25 11:04 53.75282 12.77915 34978 ft 450 kts 203°
2026-04-25 11:04 53.69302 12.74857 34981 ft 449 kts 203°
2026-04-25 11:05 53.63325 12.71802 34986 ft 449 kts 203°
2026-04-25 11:05 53.57339 12.68759 34985 ft 449 kts 203°
2026-04-25 11:06 53.51361 12.65730 34982 ft 448 kts 203°
2026-04-25 11:06 53.45387 12.62721 34992 ft 448 kts 203°
2026-04-25 11:07 53.39452 12.59728 34990 ft 448 kts 203°
2026-04-25 11:07 53.33472 12.56740 34994 ft 448 kts 203°
2026-04-25 11:08 53.27500 12.53756 34972 ft 448 kts 204°
2026-04-25 11:08 53.21532 12.50775 34980 ft 447 kts 203°
2026-04-25 11:09 53.15558 12.47801 34996 ft 448 kts 203°
2026-04-25 11:09 53.09593 12.44841 35001 ft 447 kts 203°
2026-04-25 11:10 53.03631 12.41886 34986 ft 447 kts 204°
2026-04-25 11:10 52.97674 12.38932 35004 ft 447 kts 203°
2026-04-25 11:11 52.91719 12.36003 35000 ft 447 kts 203°
2026-04-25 11:11 52.85794 12.33103 35010 ft 447 kts 203°
2026-04-25 11:12 52.79828 12.30188 35020 ft 447 kts 203°
2026-04-25 11:12 52.73863 12.27286 35019 ft 447 kts 203°
2026-04-25 11:13 52.67900 12.24387 35026 ft 447 kts 203°
2026-04-25 11:13 52.61932 12.21492 34994 ft 447 kts 203°
2026-04-25 11:14 52.55954 12.18602 35018 ft 448 kts 203°
2026-04-25 11:14 52.49968 12.15707 35033 ft 448 kts 203°
2026-04-25 11:15 52.43986 12.12829 35035 ft 448 kts 203°
2026-04-25 11:15 52.38008 12.09963 35005 ft 447 kts 202°
2026-04-25 11:16 52.29026 12.05674 35033 ft 449 kts 202°
2026-04-25 11:16 52.23025 12.02815 35044 ft 449 kts 202°
2026-04-25 11:17 52.17023 11.99965 35047 ft 449 kts 202°
2026-04-25 11:17 52.11047 11.97147 35036 ft 450 kts 202°
2026-04-25 11:18 52.05028 11.94308 35050 ft 450 kts 202°
2026-04-25 11:18 51.99005 11.91464 35059 ft 451 kts 202°
2026-04-25 11:19 51.92966 11.88633 35069 ft 451 kts 202°
2026-04-25 11:19 51.86932 11.85807 35054 ft 451 kts 201°
2026-04-25 11:20 51.80905 11.82992 35061 ft 451 kts 201°
2026-04-25 11:20 51.74877 11.80186 35063 ft 450 kts 201°
2026-04-25 11:21 51.68854 11.77397 35042 ft 450 kts 201°
2026-04-25 11:21 51.62832 11.74610 35048 ft 450 kts 201°
2026-04-25 11:22 51.57823 11.72291 35058 ft 451 kts 201°
2026-04-25 11:22 51.50768 11.69039 35062 ft 452 kts 201°
2026-04-25 11:23 51.44759 11.66287 35054 ft 452 kts 200°
2026-04-25 11:23 51.38710 11.63508 35061 ft 452 kts 200°
2026-04-25 11:24 51.32661 11.60745 35063 ft 452 kts 200°
2026-04-25 11:24 51.26614 11.57993 35067 ft 452 kts 200°
2026-04-25 11:25 51.21584 11.55711 35052 ft 452 kts 200°
2026-04-25 11:25 51.14510 11.52495 35064 ft 453 kts 200°
2026-04-25 11:26 51.09469 11.50217 35071 ft 453 kts 199°
2026-04-25 11:26 51.03400 11.47493 35082 ft 453 kts 199°
2026-04-25 11:27 50.97336 11.44776 35073 ft 453 kts 199°
2026-04-25 11:27 50.92291 11.42517 35085 ft 453 kts 199°
2026-04-25 11:28 50.85208 11.39343 35090 ft 452 kts 199°
2026-04-25 11:28 50.79148 11.36640 35093 ft 452 kts 199°
2026-04-25 11:29 50.73095 11.33952 35092 ft 451 kts 199°
2026-04-25 11:29 50.67097 11.31286 35099 ft 449 kts 199°
2026-04-25 11:30 50.61082 11.28630 35095 ft 449 kts 199°
2026-04-25 11:30 50.55070 11.25988 35089 ft 448 kts 199°
2026-04-25 11:31 50.49057 11.23338 35101 ft 448 kts 199°
2026-04-25 11:31 50.43050 11.20687 35086 ft 448 kts 199°
2026-04-25 11:32 50.37039 11.18059 35083 ft 448 kts 199°
2026-04-25 11:32 50.31032 11.15444 35080 ft 448 kts 200°
2026-04-25 11:33 50.25036 11.12838 35101 ft 447 kts 199°
2026-04-25 11:33 50.19093 11.10258 35098 ft 446 kts 200°
2026-04-25 11:34 50.13098 11.07665 35107 ft 446 kts 199°
2026-04-25 11:34 50.07123 11.05087 35106 ft 444 kts 200°
2026-04-25 11:35 50.01169 11.02518 35116 ft 444 kts 200°
2026-04-25 11:35 49.95232 10.99967 35118 ft 442 kts 200°
2026-04-25 11:36 49.89304 10.97431 35090 ft 441 kts 200°
2026-04-25 11:36 49.83433 10.94928 35112 ft 439 kts 200°
2026-04-25 11:37 49.77552 10.92413 35120 ft 438 kts 200°
2026-04-25 11:37 49.71681 10.89911 35122 ft 437 kts 200°
2026-04-25 11:38 49.65814 10.87425 35102 ft 436 kts 200°
2026-04-25 11:38 49.61787 10.85726 35109 ft 436 kts 200°
2026-04-25 11:39 49.55944 10.83259 35112 ft 436 kts 200°
2026-04-25 11:39 49.50494 10.79513 35131 ft 426 kts 219°
2026-04-25 11:40 49.48200 10.76726 35261 ft 426 kts 227°
2026-04-25 11:40 49.46125 10.73483 35405 ft 427 kts 230°
2026-04-25 11:40 49.44061 10.70193 35618 ft 428 kts 229°
2026-04-25 11:40 49.41976 10.66917 35870 ft 428 kts 229°
2026-04-25 11:41 49.39885 10.63661 36131 ft 428 kts 229°
2026-04-25 11:41 49.37791 10.60411 36388 ft 428 kts 229°
2026-04-25 11:41 49.35699 10.57162 36640 ft 428 kts 229°
2026-04-25 11:41 49.33612 10.53911 36896 ft 427 kts 229°
2026-04-25 11:42 49.31529 10.50661 37137 ft 427 kts 229°
2026-04-25 11:42 49.29449 10.47410 37377 ft 427 kts 229°
2026-04-25 11:42 49.27376 10.44168 37619 ft 426 kts 229°
2026-04-25 11:42 49.25298 10.40927 37825 ft 426 kts 229°
2026-04-25 11:43 49.23214 10.37686 38046 ft 427 kts 229°
2026-04-25 11:43 49.21132 10.34453 38150 ft 427 kts 229°
2026-04-25 11:43 49.16962 10.27993 38142 ft 427 kts 229°
2026-04-25 11:44 49.12957 10.21338 38141 ft 424 kts 234°
2026-04-25 11:44 49.09280 10.14342 38138 ft 426 kts 234°
2026-04-25 11:45 49.05555 10.07298 38132 ft 428 kts 234°
2026-04-25 11:45 49.01811 10.00235 38139 ft 428 kts 234°
2026-04-25 11:46 48.98063 9.93176 38143 ft 429 kts 234°
2026-04-25 11:46 48.94308 9.86125 38144 ft 428 kts 233°
2026-04-25 11:47 48.90547 9.79089 38139 ft 429 kts 233°
2026-04-25 11:47 48.86782 9.72054 38118 ft 429 kts 233°
2026-04-25 11:48 48.83012 9.65029 38106 ft 429 kts 233°
2026-04-25 11:48 48.79261 9.58055 38093 ft 430 kts 233°
2026-04-25 11:49 48.75472 9.51024 38094 ft 431 kts 233°
2026-04-25 11:49 48.71673 9.43994 38097 ft 431 kts 233°
2026-04-25 11:50 48.67862 9.36967 38096 ft 432 kts 233°
2026-04-25 11:50 48.64038 9.29944 38100 ft 433 kts 233°
2026-04-25 11:51 48.60253 9.22849 38112 ft 433 kts 235°
2026-04-25 11:51 48.56765 9.15458 38113 ft 432 kts 238°
2026-04-25 11:52 48.53357 9.07970 37847 ft 432 kts 238°
2026-04-25 11:52 48.51633 9.04250 37258 ft 432 kts 237°
2026-04-25 11:52 48.49891 9.00550 37065 ft 434 kts 237°
2026-04-25 11:53 48.46381 8.93174 37099 ft 437 kts 237°
2026-04-25 11:53 48.42829 8.85747 37097 ft 437 kts 237°
2026-04-25 11:54 48.39276 8.78336 37105 ft 437 kts 237°
2026-04-25 11:55 48.33955 8.67211 37103 ft 437 kts 237°
2026-04-25 11:55 48.30394 8.59801 37111 ft 438 kts 237°
2026-04-25 11:56 48.26816 8.52383 37111 ft 438 kts 237°
2026-04-25 11:56 48.23237 8.44984 37110 ft 438 kts 237°
2026-04-25 11:57 48.19650 8.37589 37110 ft 438 kts 237°
2026-04-25 11:57 48.15522 8.30845 37111 ft 444 kts 220°
2026-04-25 11:58 48.10365 8.25702 37112 ft 447 kts 215°
2026-04-25 11:58 48.05129 8.20675 37112 ft 448 kts 215°
2026-04-25 11:59 47.99931 8.15669 37121 ft 448 kts 215°
2026-04-25 11:59 47.94693 8.10636 37120 ft 448 kts 215°
2026-04-25 12:00 47.86804 8.03102 37123 ft 449 kts 215°
2026-04-25 12:01 47.78901 7.95563 37121 ft 450 kts 215°
2026-04-25 12:01 47.73627 7.90549 37116 ft 450 kts 215°
2026-04-25 12:02 47.65690 7.83034 36340 ft 453 kts 215°
2026-04-25 12:02 47.63019 7.80511 35485 ft 457 kts 215°
2026-04-25 12:02 47.60329 7.77966 34613 ft 462 kts 214°
2026-04-25 12:03 47.57603 7.75397 33838 ft 464 kts 214°
2026-04-25 12:03 47.54931 7.72886 33262 ft 459 kts 214°
2026-04-25 12:03 47.52242 7.70361 32642 ft 456 kts 215°
2026-04-25 12:03 47.49568 7.67855 32031 ft 454 kts 215°
2026-04-25 12:04 47.46903 7.65358 31431 ft 452 kts 215°
2026-04-25 12:04 47.44255 7.62879 30836 ft 451 kts 215°
2026-04-25 12:04 47.41609 7.60405 30243 ft 449 kts 214°
2026-04-25 12:04 47.38969 7.57942 29595 ft 447 kts 214°
2026-04-25 12:05 47.36347 7.55497 29026 ft 444 kts 214°
2026-04-25 12:05 47.33750 7.53077 28455 ft 440 kts 214°
2026-04-25 12:05 47.31171 7.50676 27903 ft 436 kts 214°
2026-04-25 12:05 47.28612 7.48294 27362 ft 432 kts 214°
2026-04-25 12:06 47.26083 7.45942 26807 ft 429 kts 215°
2026-04-25 12:06 47.23568 7.43605 26308 ft 425 kts 215°
2026-04-25 12:06 47.21084 7.41303 25819 ft 420 kts 215°
2026-04-25 12:06 47.18621 7.39023 25324 ft 416 kts 216°
2026-04-25 12:07 47.16355 7.36440 24847 ft 409 kts 227°
2026-04-25 12:07 47.14482 7.33359 24369 ft 401 kts 236°
2026-04-25 12:07 47.12762 7.30151 23894 ft 399 kts 236°
2026-04-25 12:07 47.11042 7.26964 23365 ft 397 kts 236°
2026-04-25 12:08 47.09329 7.23804 22875 ft 394 kts 236°
2026-04-25 12:08 47.07624 7.20677 22405 ft 391 kts 235°
2026-04-25 12:08 47.05926 7.17569 21929 ft 389 kts 235°
2026-04-25 12:08 47.04234 7.14475 21441 ft 387 kts 234°
2026-04-25 12:09 47.02557 7.11406 20961 ft 385 kts 234°
2026-04-25 12:09 47.00886 7.08351 20437 ft 383 kts 234°
2026-04-25 12:09 46.99224 7.05312 19955 ft 382 kts 233°
2026-04-25 12:09 46.97569 7.02284 19473 ft 380 kts 233°
2026-04-25 12:10 46.95921 6.99270 18999 ft 378 kts 233°
2026-04-25 12:10 46.94280 6.96274 18526 ft 376 kts 233°
2026-04-25 12:10 46.92646 6.93297 18020 ft 375 kts 233°
2026-04-25 12:10 46.91015 6.90336 17546 ft 372 kts 233°
2026-04-25 12:11 46.89393 6.87397 17085 ft 369 kts 233°
2026-04-25 12:11 46.87810 6.84525 16638 ft 367 kts 233°
2026-04-25 12:11 46.86217 6.81632 16187 ft 364 kts 233°
2026-04-25 12:11 46.84637 6.78759 15741 ft 361 kts 232°
2026-04-25 12:12 46.83064 6.75907 15302 ft 359 kts 232°
2026-04-25 12:12 46.82005 6.73993 15002 ft 357 kts 232°
2026-04-25 12:12 46.79947 6.70280 14421 ft 354 kts 232°
2026-04-25 12:12 46.78399 6.67488 13967 ft 354 kts 232°
2026-04-25 12:13 46.76851 6.64704 13478 ft 353 kts 231°
2026-04-25 12:13 46.75311 6.61941 13037 ft 349 kts 231°
2026-04-25 12:13 46.73731 6.59273 12593 ft 347 kts 224°
2026-04-25 12:13 46.71812 6.57170 12131 ft 346 kts 210°
2026-04-25 12:14 46.70375 6.56187 11866 ft 343 kts 200°
2026-04-25 12:14 46.68121 6.55077 11382 ft 341 kts 199°
2026-04-25 12:14 46.65876 6.53991 10993 ft 337 kts 199°
2026-04-25 12:14 46.63663 6.52923 10569 ft 333 kts 199°
2026-04-25 12:15 46.61485 6.51871 10342 ft 324 kts 199°
2026-04-25 12:15 46.59391 6.50861 10227 ft 311 kts 199°
2026-04-25 12:15 46.57377 6.49888 10131 ft 299 kts 199°
2026-04-25 12:15 46.55426 6.48945 9869 ft 294 kts 199°
2026-04-25 12:16 46.53494 6.48005 9406 ft 292 kts 199°
2026-04-25 12:16 46.51564 6.47068 8597 ft 293 kts 199°
2026-04-25 12:16 46.49630 6.46138 7910 ft 290 kts 199°
2026-04-25 12:16 46.47767 6.45240 7674 ft 272 kts 202°
2026-04-25 12:17 46.46198 6.43961 7451 ft 250 kts 224°
2026-04-25 12:17 46.44986 6.42226 7043 ft 241 kts 227°
2026-04-25 12:17 46.43846 6.40507 6698 ft 232 kts 229°
2026-04-25 12:17 46.42743 6.38862 6371 ft 224 kts 227°
2026-04-25 12:18 46.41671 6.37271 6057 ft 217 kts 228°
2026-04-25 12:18 46.40632 6.35729 5764 ft 211 kts 228°
2026-04-25 12:18 46.39616 6.34223 5487 ft 207 kts 227°
2026-04-25 12:18 46.38628 6.32760 5211 ft 201 kts 227°
2026-04-25 12:19 46.37059 6.30437 4782 ft 184 kts 227°
2026-04-25 12:19 46.35901 6.28725 4445 ft 172 kts 228°
2026-04-25 12:19 46.35092 6.27530 4227 ft 161 kts 227°
2026-04-25 12:20 46.34331 6.26406 4064 ft 152 kts 228°
2026-04-25 12:20 46.33595 6.25318 4015 ft 149 kts 227°
2026-04-25 12:20 46.32863 6.24238 4014 ft 150 kts 227°
2026-04-25 12:20 46.32134 6.23160 4012 ft 150 kts 227°
2026-04-25 12:21 46.31403 6.22082 4016 ft 151 kts 227°
2026-04-25 12:21 46.30670 6.20998 4011 ft 150 kts 227°
2026-04-25 12:21 46.29906 6.19870 4018 ft 171 kts 227°
2026-04-25 12:21 46.29032 6.18472 3992 ft 204 kts 239°
2026-04-25 12:22 46.28726 6.16459 4226 ft 214 kts 279°
2026-04-25 12:22 46.29394 6.14593 5014 ft 218 kts 317°
2026-04-25 12:22 46.30776 6.13716 5842 ft 225 kts 358°
2026-04-25 12:22 46.32261 6.14373 6647 ft 232 kts 36°
2026-04-25 12:23 46.33394 6.16058 6915 ft 235 kts 51°
2026-04-25 12:23 46.34330 6.17990 7002 ft 234 kts 56°
2026-04-25 12:23 46.35205 6.19980 7020 ft 234 kts 56°
2026-04-25 12:23 46.36074 6.21965 7017 ft 233 kts 56°
2026-04-25 12:24 46.36956 6.23933 7013 ft 233 kts 55°
2026-04-25 12:24 46.37858 6.25897 7019 ft 234 kts 54°
2026-04-25 12:24 46.38769 6.27841 7022 ft 233 kts 54°
2026-04-25 12:24 46.39690 6.29785 7028 ft 243 kts 54°
2026-04-25 12:25 46.40728 6.31956 7026 ft 275 kts 53°
2026-04-25 12:25 46.41835 6.34264 7020 ft 280 kts 54°
2026-04-25 12:25 46.42950 6.36596 7031 ft 282 kts 53°
2026-04-25 12:25 46.44072 6.38940 7025 ft 283 kts 54°
2026-04-25 12:26 46.45180 6.41261 7016 ft 281 kts 53°
2026-04-25 12:26 46.46252 6.43512 7013 ft 262 kts 53°
2026-04-25 12:26 46.47129 6.45742 6927 ft 250 kts 75°
2026-04-25 12:26 46.47056 6.48163 6805 ft 239 kts 115°
2026-04-25 12:27 46.45985 6.49894 6682 ft 232 kts 156°
2026-04-25 12:27 46.44431 6.50191 6568 ft 227 kts 198°
2026-04-25 12:27 46.43169 6.48959 6452 ft 221 kts 239°
2026-04-25 12:27 46.42681 6.46883 6365 ft 219 kts 258°
2026-04-25 12:28 46.42316 6.44722 6250 ft 221 kts 257°
2026-04-25 12:28 46.41937 6.42567 6074 ft 219 kts 257°
2026-04-25 12:28 46.41560 6.40426 5900 ft 219 kts 257°
2026-04-25 12:28 46.41184 6.38297 5707 ft 218 kts 257°
2026-04-25 12:29 46.40667 6.36243 5522 ft 218 kts 240°
2026-04-25 12:29 46.39726 6.34518 5396 ft 218 kts 231°
2026-04-25 12:29 46.38711 6.32903 5149 ft 216 kts 228°
2026-04-25 12:29 46.37665 6.31334 4876 ft 217 kts 227°
2026-04-25 12:30 46.36608 6.29769 4586 ft 218 kts 227°
2026-04-25 12:30 46.35547 6.28201 4308 ft 217 kts 228°
2026-04-25 12:30 46.34493 6.26645 4031 ft 213 kts 227°
2026-04-25 12:30 46.33484 6.25154 3753 ft 202 kts 227°
2026-04-25 12:31 46.32534 6.23750 3500 ft 189 kts 227°
2026-04-25 12:31 46.31645 6.22437 3248 ft 176 kts 227°
2026-04-25 12:31 46.30816 6.21215 3037 ft 164 kts 227°
2026-04-25 12:31 46.30046 6.20082 2801 ft 156 kts 227°
2026-04-25 12:32 46.29303 6.18985 2593 ft 151 kts 227°
2026-04-25 12:32 46.28569 6.17904 2400 ft 150 kts 226°
2026-04-25 12:32 46.27837 6.16822 2190 ft 151 kts 226°
2026-04-25 12:32 46.27107 6.15737 1987 ft 151 kts 225°
2026-04-25 12:33 46.26368 6.14664 1791 ft 150 kts 226°
2026-04-25 12:33 46.25638 6.13586 1573 ft 150 kts 226°
2026-04-25 12:33 46.24912 6.12522 1386 ft 148 kts 226°
2026-04-25 12:33 46.24262 6.11563 1369 ft 110 kts 225°
2026-04-25 12:34 46.23846 6.10953 1378 ft 61 kts 225°
2026-04-25 12:34 46.23575 6.10562 1383 ft 52 kts 225°
2026-04-25 12:34 46.23345 6.10226 1402 ft 39 kts 219°
2026-04-25 12:34 46.23201 6.10115 1390 ft 27 kts 197°
2026-04-25 12:35 46.23026 6.10201 1390 ft 18 kts 133°
2026-04-25 12:35 46.22956 6.10332 1390 ft 14 kts 85°
2026-04-25 12:35 46.23007 6.10437 1387 ft 11 kts 79°
2026-04-25 12:35 46.22986 6.10485 1404 ft 3 kts 133°
2026-04-25 12:36 46.22981 6.10492 1391 ft 0 kts 133°